Regional Weather Roundup
Issued by NWS Charleston, SC

Current Version | Previous Version | Text Only | Print | Product List | Glossary Off
Versions: 1 2 3 4 5 6 7 8 9 10 11 12 13 14 15 16 17 18 19 20 21 22 23 24 25 26 27 28 29 30 31 32 33 34 35 36 37 38 39 40 41 42 43 44 45 46 47 48 49 50

000
ASUS42 KCHS 241925
RWRCHS

REGIONAL WEATHER ROUNDUP
NATIONAL WEATHER SERVICE CHARLESTON SC
300 PM EDT THU APR 24 2014

NOTE: "FAIR" INDICATES FEW OR NO CLOUDS BELOW 12,000 FEET WITH NO
SIGNIFICANT WEATHER AND/OR OBSTRUCTIONS TO VISIBILITY.

NOT ALL STATIONS ARE QUALITY CONTROLLED BY THE NATIONAL
WEATHER SERVICE. USE DATA WITH CAUTION...ESPECIALLY
DEWPOINT OBSERVATIONS.

SCZ027-030-031-034>040-042>050-242000-
...SOUTH CAROLINA...

CITY           SKY/WX    TMP DP  RH WIND       PRES   REMARKS
N CHARLESTON   SUNNY     76  50  40 E14G20    30.03F
WATERFRONT PRK   N/A     66 N/A N/A E16G22      N/A
FORT JOHNSON     N/A     66  57  72 E6        30.09F
MOUNT PLEASANT LGT RAIN  70  55  60 E3G24     30.03F
JOHNS ISLAND   CLEAR     70  57  64 E20       30.04F
PINOPOLIS        N/A     79  52  38 SE5       29.94F
MONCKS CORNER  FAIR      77  57  50 SE7       30.03F
SUMMERVILLE    NOT AVBL
BEAUFORT MCAS  MOSUNNY   74  58  57 SE15      30.02F
BEAUFORT ARPT  FAIR      72  61  68 E13       30.01F
HILTON HEAD IS SUNNY     68  59  73 NE12G21   30.03F
GEORGETOWN     NOT AVBL
WALTERBORO     CLEAR     79  57  47 SE8       30.00F
ORANGEBURG     SUNNY     76  46  34 SE9       30.01F
BARNWELL       FAIR      79  46  31 SE7       29.99F
AIKEN          FAIR      79  50  36 SE7       30.03F
MANNING        FAIR      79  50  36 S6        30.01F
KINGSTREE      NOT AVBL
COLUMBIA       SUNNY     77  43  29 E13G18    30.00F
SUMTER         SUNNY     76  42  29 E6        30.01F
FLORENCE       SUNNY     75  40  28 SE9       30.03F
MYRTLE BEACH   SUNNY     66  48  52 E15       30.07
N MYRTLE BEACH SUNNY     66  48  52 E10       30.06F

$$

GAZ063-065-086>088-099>101-113>116-118-119-134-136>141-150-242000-
...GEORGIA...

CITY           SKY/WX    TMP DP  RH WIND       PRES   REMARKS
SAVANNAH ARPT  MOSUNNY   79  60  52 E16       30.00F
HUNTER AAF     SUNNY     75  62  63 E20       29.98F
FORT STEWART   PTSUNNY   80  69  68 E13       29.96F
STATESBORO     NOT AVBL
SYLVANIA       CLEAR     84  48  28 CALM      29.98F
CLAXTON        FAIR      84  57  39 CALM      29.97F
THOMSON        SUNNY     79  50  36 CALM      30.01F
AUGUSTA-BUSH   SUNNY     81  45  28 SE8       29.98F
AUGUSTA-DANIEL SUNNY     79  42  26 VRB3      29.99F
SWAINSBORO     FAIR      82  50  32 S9        29.97F
VIDALIA        PTSUNNY   82  50  32 SW3       29.97F
ALMA           PTSUNNY   84  53  34 CALM      29.96F
WAYCROSS       NOT AVBL
JESUP          MOCLDY    81  57  44 SW3       29.97F
BRUNSWICK      MOSUNNY   81  63  54 E12G17    29.98F
SAINT SIMONS   SUNNY     77  63  61 E13       29.99F

$$

SCZ027-028-034-036>038-045-046-048>050-GAZ119-141-242000-
...LAKE AND SUPPLEMENTAL COASTAL OBSERVATIONS...

STATION/POSITION TIME  TEMP    WIND        PRES    WAVE   SWELL
                       AIR SEA DIR/SP/G            HT/PER HT/PER/DIR
                 (UTC) (F)     (DEG/KT/KT) (MB)    (FT/S) (FT/S/D)
UPR LAKE MARION  NOT AVBL
WINYAH BAY       1900   62      70/ 13     1018.0S
LAKE MURRAY      1800   70     220/  3/  4 1016.3F
ACE BASIN NERRS  1900   76     100/  6     1017.0S
FORT PULASKI     1900   66 61   70/ 17/ 19 1016.7F
SAPELO ISLAND    1900   77      90/ 10     1016.0S

$$

ANZ835-935-AMZ111-154-330-350-352-354-374-450-454-472-242000-
...C-MAN AND BUOY OBSERVATIONS...

STATION/POSITION TIME  TEMP    WIND        PRES    WAVE   SWELL
                       AIR SEA DIR/SP/G            HT/PER HT/PER/DIR
                 (UTC) (F)     (DEG/KT/KT) (MB)    (FT/S) (FT/S/D)
FOLLY BEACH CMAN 1900   64      60/ 18/ 21 1017.5F
BUOY 41004       1900   69 72   60/ 16/ 19 1016.3F   4/ 6   2/ 8
BUOY 41008       1900   71 70  100/  6/  8 1015.6F   1/ 8   2/130/ 8
5E ST. MARYS GA  1900      71                N/A     1/ 8
FRYING PAN BUOY  1900   63 68   70/ 16/ 19 1017.6F   4/ 6   2/ 70/10
BUOY 41025       NOT AVBL
CAPE LOOKOUT NC  1900   58     100/  8/  9 1018.1F
BUOY 41002       NOT AVBL
BUOY 41010       1900   75 77  150/  6/  8 1016.7F   2/ 8   2/ 90/ 8
BUOY 41012       NOT AVBL
ST AUGUSTINE FL  1900   70     140/  9/ 10 1016.0F
CAPERS NEARSHORE NOT AVBL
FRIPP NEARSHORE  1800   66      80/ 16/ 17   N/A


$$



USA.gov is the U.S. government's official web portal to all federal, state and local government web resources and services.